カタログに戻る

STARLINK-36572

運用中通信SSO
NORAD 67536·PAYLOAD·🇺🇸 United States

打ち上げ Jan 22, 2026 から Vandenberg Space Force Base

Loading…

次のパス (今後24時間)

TLE

最新Source: CelesTrak SupGP

元期: Sep 14, 2026, 21:16 UTC

1 67536C 26014E   26257.88659722 -.00025197  00000+0 -78257-3 0  2573
2 67536  97.2845 143.2966 0001936  95.6919 341.9818 15.33434813    13

AllMySatでSTARLINK-36572をリアルタイム追跡

Download on the App Store